Location: Banff
(51.1667°N, 115.5667°W)
Time: 13:25:28
(UTC+00:00)

Vanguard 1 Rocket - Pass Details

Date: 04 December 2020
Orbit: 655 x 4222 km, 34.3° (Epoch: 23 January)

Event Time Altitude Azimuth Distance (km) Brightness Sun altitude
Rises 08:27:26 0° 237° (WSW) 7,979 - -59.2°
Reaches altitude 10° 08:32:56 10° 232° (SW) 7,200 - -58.9°
Maximum altitude 08:56:32 47° 169° (SSE) 4,805 - -56.9°
Exits shadow 09:04:16 38° 132° (SE) 4,839 10.8 -56.1°
Drops below altitude 10° 09:15:30 10° 104° (ESE) 5,929 11.7 -54.9°
Sets 09:19:27 0° 99° (E) 6,548 12.1 -54.5°
